This is the latest recevied weather packets stored in our database for station/object SV3CQY. If no packets are shown the sender has not sent any weather packets the latest 10 day(s).
| Time | Temp. | Humidity | Pressure | Rain* | Wind** | Luminosity | Snow |
|---|---|---|---|---|---|---|---|
| 1777972211 | 20.56° C | 61% | 1017.1 hPa | 0 mm | - | - | - |
| 1777971310 | 19.44° C | 67% | 1017.1 hPa | 0 mm | - | - | - |
| 1777970728 | 19.44° C | 68% | 1017.1 hPa | 0 mm | - | - | - |
| 1777970411 | 18.89° C | 71% | 1017.2 hPa | 0 mm | - | - | - |
| 1777969829 | 18.33° C | 73% | 1017.3 hPa | 0 mm | - | - | - |
| 1777968608 | 18.33° C | 73% | 1017.2 hPa | 0 mm | - | - | - |
| 1777968028 | 18.89° C | 72% | 1017.2 hPa | 0 mm | - | - | - |
| 1777966241 | 19.44° C | 65% | 1017.3 hPa | 0 mm | - | - | - |
| 1777965344 | 18.33° C | 71% | 1017.3 hPa | 0 mm | - | - | - |
| 1777963528 | 16.67° C | 81% | 1017.5 hPa | 0 mm | - | - | - |
| 1777961115 | 16.11° C | 80% | 1017.5 hPa | 0 mm | - | - | - |
| 1777960512 | 16.11° C | 80% | 1017.5 hPa | 0 mm | - | - | - |
| 1777958430 | 15° C | 77% | 1017.6 hPa | 0 mm | - | - | - |
| 1777958136 | 15° C | 77% | 1017.6 hPa | 0 mm | - | - | - |
| 1777955709 | 13.89° C | 77% | 1017.5 hPa | 0 mm | - | - | - |
| 1777955109 | 13.33° C | 77% | 1017.3 hPa | 0 mm | - | - | - |
| 1777953635 | 10.56° C | 86% | 1017.3 hPa | 0 mm | - | - | - |
| 1777950028 | 10.56° C | 84% | 1017.1 hPa | 0 mm | - | - | - |
| 1777949710 | 10.56° C | 85% | 1017.2 hPa | 0 mm | - | - | - |
| 1777948810 | 11.11° C | 85% | 1017.3 hPa | 0 mm | - | - | - |
| 1777946428 | 10.56° C | 83% | 1017.2 hPa | 0 mm | - | - | - |
| 1777942828 | 11.67° C | 83% | 1017.4 hPa | 0 mm | - | - | - |
| 1777941028 | 11.11° C | 80% | 1017.5 hPa | 0 mm | - | - | - |
| 1777938611 | 11.67° C | 77% | 1017.7 hPa | 0 mm | - | - | - |
| 1777937428 | 13.33° C | 74% | 1017.8 hPa | 0 mm | - | - | - |
* Rain latest hour (hover to see other rain measurements)
** Current wind speed in m/s (hover to see current wind gust speed)